Hutchinson, KS

7:36 PM CST on November 20, 2019 (GMT -0600)
Hutchinson Municipal

Weather History for KHUT - October, 2019

Change the Weather History Date:

Sunday, October 20, 2019

  Actual Average Record
Temperature  
Mean Temperature 57 °F -  
Max Temperature 72 °F 66 °F 91 °F (2003)
Min Temperature 42 °F 41 °F 27 °F (2002)
Degree Days  
Heating Degree Days 8    
Growing Degree Days 7 (Base 50)    
Moisture  
Dew Point 40 °F    
Average Humidity 55    
Maximum Humidity 90    
Minimum Humidity 28    
Precipitation  
Precipitation 0.00 in - - ()
Sea Level Pressure  
Sea Level Pressure 29.65 in    
Wind  
Wind Speed 10 mph (South)    
Max Wind Speed 28 mph    
Max Gust Speed 38 mph    
Visibility 10 miles    
Events Thunderstorm    
Averages and records for this station are not official NWS values.
T = Trace of Precipitation, MM = Missing Value Source: NWS Daily Summary

Daily Weather History Graph

Daily Weather History Graph

Search for Another Location

Airport or City:

Astronomy

Oct. 20, 2019 Rise Set
Actual Time 7:44 AM CDT 6:47 PM CDT
Civil Twilight 7:18 AM CDT 7:13 PM CDT
Nautical Twilight 6:47 AM CDT 7:44 PM CDT
Astronomical Twilight 6:16 AM CDT 8:14 PM CDT
Moon No Moon Rise 2:10 PM CDT (10/20)
Length of Visible Light 11h 55m
Length of Day
11h 02m
Waning Gibbous, 59% of the Moon is Illuminated
Oct 20
Waning Gibbous
Oct 21
Last Quarter
Oct 27
New
Nov 4
First Quarter
Nov 12
Full

Hourly Weather History & Observations

Time (CDT) Temp. Windchill Dew Point Humidity Pressure Visibility Wind Dir Wind Speed Gust Speed Precip Events Conditions
12:52 AM 45.0 °F - 36.0 °F 71% 29.78 in 10.0 mi Calm Calm - N/A   Clear
1:52 AM 45.0 °F 43.5 °F 36.0 °F 71% 29.77 in 10.0 mi SE 3.5 mph - N/A   Clear
2:52 AM 46.0 °F 41.9 °F 37.9 °F 73% 29.75 in 10.0 mi ESE 8.1 mph - N/A   Clear
3:52 AM 46.0 °F 43.1 °F 39.0 °F 76% 29.74 in 10.0 mi SE 5.8 mph - N/A   Clear
4:52 AM 42.1 °F 38.4 °F 37.9 °F 85% 29.73 in 10.0 mi ESE 5.8 mph - N/A   Clear
5:52 AM 48.0 °F - 44.1 °F 86% 29.72 in 10.0 mi SE 8.1 mph - N/A   Clear
6:52 AM 48.9 °F - 46.0 °F 90% 29.72 in 10.0 mi SE 9.2 mph - N/A   Clear
7:52 AM 51.1 °F - 46.9 °F 86% 29.71 in 10.0 mi SE 12.7 mph - N/A   Clear
8:52 AM 53.1 °F - 48.9 °F 86% 29.71 in 10.0 mi SE 12.7 mph - N/A   Clear
9:52 AM 57.0 °F - 48.0 °F 72% 29.71 in 10.0 mi SE 18.4 mph 27.6 mph N/A   Clear
10:52 AM 60.1 °F - 48.9 °F 67% 29.69 in 10.0 mi SSE 21.9 mph 29.9 mph N/A   Clear
11:52 AM 64.9 °F - 46.9 °F 52% 29.66 in 10.0 mi SSE 24.2 mph 35.7 mph N/A   Clear
12:52 PM 69.1 °F - 45.0 °F 42% 29.61 in 10.0 mi SSE 25.3 mph 33.4 mph N/A   Clear
1:52 PM 68.0 °F - 46.9 °F 47% 29.57 in 10.0 mi South 21.9 mph 33.4 mph N/A   Clear
2:52 PM 72.0 °F - 48.0 °F 43% 29.55 in 10.0 mi South 18.4 mph 25.3 mph N/A   Partly Cloudy
3:52 PM 71.1 °F - 48.9 °F 45% 29.53 in 10.0 mi South 15.0 mph 26.5 mph N/A   Overcast
4:52 PM 72.0 °F - 50.0 °F 46% 29.54 in 10.0 mi South 8.1 mph - N/A   Scattered Clouds
5:52 PM 68.0 °F - 48.9 °F 50% 29.54 in 10.0 mi NW 27.6 mph 36.8 mph N/A   Scattered Clouds
6:08 PM 66.0 °F - 43.0 °F 43% 29.59 in 10.0 mi NW 17.3 mph 26.5 mph N/A   Mostly Cloudy
6:52 PM 64.0 °F - 35.1 °F 34% 29.58 in 10.0 mi NNW 16.1 mph 29.9 mph N/A   Clear
7:52 PM 62.1 °F - 30.0 °F 30% 29.60 in 10.0 mi NNW 12.7 mph - N/A   Scattered Clouds
8:52 PM 60.1 °F - 27.0 °F 28% 29.61 in 10.0 mi WNW 8.1 mph - 0.00 in   Overcast
9:01 PM 59.0 °F - 28.9 °F 32% 29.64 in 10.0 mi NW 6.9 mph - N/A Thunderstorm Overcast
9:16 PM 60.1 °F - 27.0 °F 28% 29.66 in 10.0 mi WNW 10.4 mph - N/A   Overcast
9:52 PM 57.9 °F - 27.0 °F 31% 29.61 in 10.0 mi West 3.5 mph - N/A   Overcast
10:52 PM 54.0 °F - 27.0 °F 35% 29.57 in 10.0 mi WNW 12.7 mph - N/A   Scattered Clouds
11:52 PM 55.9 °F - 27.0 °F 33% 29.58 in 10.0 mi WNW 20.7 mph 38.0 mph N/A   Clear